Theta_e
311 310 308 306 303 302 302 301 300 300 301 302 302 303 304 304 304 304 305 306 308 307 310 312 306 309 313 326 327 319 318 318 318 318 321 320 321 322 322 324 324 323 323 324 324 324 324
311 310 307 304 301 301 301 301 301 301 301 302 303 304 304 305 304 305 305 312 312 312 312 310 306 310 318 326 327 319 320 320 319 318 321 322 324 324 325 326 325 324 324 324 323 323 323
311 308 305 302 301 301 301 301 301 301 302 304 305 305 305 305 305 305 309 312 312 313 313 306 307 313 324 325 322 326 321 320 320 320 322 322 324 326 326 325 326 325 324 324 324 324 324
311 308 305 302 301 301 301 301 302 302 302 306 308 308 306 306 306 306 315 311 312 312 308 306 309 319 327 324 322 326 323 323 322 321 322 324 325 325 325 325 326 326 326 325 325 325 324
311 308 304 301 301 301 301 302 303 303 303 306 309 309 308 307 307 309 315 313 311 309 307 308 314 323 328 322 321 323 326 325 324 322 323 323 324 325 325 325 325 325 326 325 326 326 326
309 307 303 301 301 301 302 303 304 304 304 304 309 310 308 309 312 317 317 318 313 312 311 315 321 326 325 325 324 322 324 324 325 323 323 323 323 324 325 326 328 326 325 326 326 326 325
309 307 302 301 300 301 303 304 305 305 305 305 309 310 310 315 316 318 319 322 326 328 325 328 329 327 326 325 324 323 322 324 326 324 323 323 324 325 325 326 326 326 326 326 327 327 326
309 306 302 301 300 301 303 304 305 305 306 307 306 311 311 315 316 317 317 325 320 320 321 323 324 324 322 323 325 324 322 323 325 326 324 324 325 325 326 326 326 326 326 327 326 326 325
309 306 301 300 300 301 304 305 305 306 306 308 308 309 312 312 313 317 321 317 317 319 323 327 323 323 325 322 322 323 324 323 324 325 326 326 326 326 327 327 326 326 326 327 326 326 326
309 305 301 300 301 302 304 305 306 306 307 308 309 309 312 313 316 320 321 317 318 321 327 328 324 326 326 325 325 323 324 323 323 325 326 326 326 326 326 326 326 327 325 326 326 326 326
307 302 300 300 300 302 303 304 305 306 307 309 309 309 309 313 316 320 317 317 319 322 342 325 327 326 326 326 327 326 324 325 326 325 325 326 326 326 326 327 326 327 326 326 326 327 327
304 301 300 299 300 301 303 304 305 306 307 308 310 309 309 316 318 320 317 317 321 335 336 326 326 326 327 327 326 327 326 324 325 326 326 326 326 327 326 327 326 326 325 326 326 326 330
303 300 299 299 300 301 302 303 304 306 307 308 310 311 310 312 319 315 317 321 331 334 324 324 326 325 324 325 326 326 326 327 326 327 327 326 326 326 326 326 326 326 328 328 329 330 330
301 300 299 299 300 300 302 302 303 305 307 307 310 314 316 315 317 315 318 325 332 327 323 325 324 322 322 321 323 324 325 326 327 328 327 327 327 325 327 328 328 328 331 333 338 336 330
301 299 299 299 299 300 301 302 303 304 306 306 309 317 319 319 314 315 320 326 328 327 323 322 321 320 321 321 321 323 324 324 325 328 329 329 328 327 328 328 328 330 331 330 333 334 336
300 299 299 299 299 300 301 302 302 302 305 306 307 317 320 318 315 315 320 322 323 323 321 319 319 321 322 322 323 325 324 323 325 325 325 327 328 325 327 328 327 328 328 331 331 340 341
300 299 299 299 299 299 300 301 301 300 303 306 312 320 319 316 315 318 322 323 322 321 319 319 320 321 322 323 323 322 322 322 324 324 324 325 326 327 326 325 326 326 328 330 330 330 340
299 299 299 299 299 299 299 300 300 299 299 304 312 319 317 316 318 321 324 321 313 320 317 318 319 319 320 320 321 322 322 321 319 320 320 322 324 326 324 322 321 323 326 329 334 332 332
299 299 299 299 299 299 299 299 299 299 298 302 313 318 317 316 321 322 322 321 319 317 318 317 318 319 319 320 322 321 321 320 318 318 321 322 321 324 322 320 323 324 322 324 327 325 329
299 299 299 300 300 300 299 299 299 299 299 303 315 317 319 318 318 319 320 319 318 318 317 317 318 318 319 319 320 320 320 320 318 318 319 319 319 319 320 320 323 322 322 318 324 329 324
299 299 299 300 300 300 299 298 298 299 300 305 316 316 316 316 317 316 316 317 317 317 317 318 317 318 318 319 319 319 319 319 318 318 316 317 318 318 317 317 318 317 316 316 318 318 319
299 299 299 300 300 299 299 298 297 298 301 309 312 311 312 312 313 315 316 317 317 317 317 318 318 318 318 319 319 319 319 321 320 319 317 319 319 319 319 317 317 316 316 316 316 315 315
299 299 299 300 299 300 299 298 297 298 300 306 307 308 309 311 312 313 315 316 315 315 316 316 316 316 316 318 317 318 318 319 320 320 320 320 320 322 322 318 317 318 317 316 316 316 315
299 299 299 300 300 300 299 298 297 299 297 302 305 306 308 309 310 311 312 312 312 312 313 313 313 314 316 316 315 316 317 317 318 318 319 320 321 322 325 320 325 317 317 317 317 316 315
298 298 299 299 299 300 299 298 297 297 296 300 303 306 307 309 308 308 309 310 311 312 312 312 312 311 312 312 313 316 317 317 316 316 315 319 320 324 326 325 320 317 317 316 319 319 319
298 298 300 299 299 298 298 298 298 297 296 299 303 305 305 306 306 308 308 308 309 310 310 310 311 312 312 312 313 316 318 317 317 317 318 318 322 323 324 327 322 317 320 318 317 318 318
298 298 299 299 297 297 297 299 298 297 296 299 302 302 303 305 305 305 308 308 308 308 309 310 311 312 312 312 313 315 315 315 317 318 323 321 320 321 323 323 320 317 318 316 319 320 316
297 298 298 299 298 297 296 297 299 298 297 298 300 301 302 304 303 303 304 305 306 306 307 307 308 310 312 314 313 313 316 316 317 318 322 322 321 321 320 321 321 317 318 318 320 317 315
297 298 298 298 298 298 297 297 299 299 298 298 299 301 302 302 303 301 301 302 303 304 305 306 307 308 311 314 316 315 316 315 318 319 318 323 322 323 322 323 320 317 318 315 313 312 312
Wind_Speed
29 29 30 31 32 34 33 32 31 31 28 25 24 22 19 16 14 12 11 10 9 8 7 6 7 7 3 8 8 13 15 13 14 12 17 13 14 13 15 16 15 15 18 17 16 12 16
28 29 31 32 33 35 34 34 34 34 32 28 26 23 19 16 14 11 10 8 7 7 8 7 8 8 5 12 11 15 15 15 13 16 18 17 11 12 16 14 16 14 12 16 20 13 16
28 30 32 32 34 36 35 35 35 37 37 32 28 24 18 16 14 10 6 5 3 4 6 7 9 7 11 14 2 12 16 15 15 16 14 13 15 10 11 16 12 15 17 15 17 15 17
28 30 32 34 35 37 36 36 38 39 41 36 31 25 19 15 12 8 4 2 1 3 5 7 8 6 7 3 6 12 15 15 15 15 16 9 9 12 15 15 19 12 15 17 17 21 18
27 30 33 35 36 38 37 38 39 41 44 39 34 27 21 16 11 3 1 2 2 4 5 8 6 9 10 5 11 14 17 16 15 12 14 9 10 12 14 15 13 14 14 19 20 20 19
28 31 34 35 37 39 39 39 41 42 43 42 34 29 23 14 7 2 2 1 3 5 4 5 14 8 9 10 10 14 15 16 11 9 11 10 8 13 14 13 14 16 17 15 17 16 11
29 32 34 36 37 39 40 41 42 43 43 41 34 32 21 10 7 2 0 1 5 6 12 11 7 11 4 3 4 8 16 14 15 9 14 15 12 14 17 18 20 17 20 18 20 16 12
29 32 33 35 37 39 40 41 42 43 43 41 36 29 21 10 7 7 8 6 7 8 10 17 18 17 14 6 10 11 14 13 16 15 16 14 18 16 18 19 20 19 17 17 18 22 19
29 31 33 35 37 39 39 41 42 43 44 41 36 29 22 15 14 13 5 8 8 9 6 10 9 10 6 12 14 12 15 16 16 17 18 18 18 19 23 14 17 18 16 17 21 22 20
28 31 32 34 36 37 39 41 42 44 44 42 37 33 20 22 10 10 3 11 9 5 5 12 9 6 7 7 9 15 16 13 17 20 18 17 19 21 20 16 15 18 20 18 21 19 15
29 31 32 34 35 36 38 40 42 43 44 42 37 33 18 18 15 7 12 13 10 5 5 13 11 6 1 10 3 12 14 16 17 19 18 20 20 20 19 20 18 21 16 19 20 19 17
29 30 31 33 34 36 38 41 43 43 44 44 38 29 15 6 12 13 15 12 6 5 5 6 6 5 13 12 10 6 5 14 13 19 20 21 22 22 22 19 17 17 20 18 18 17 17
28 30 31 33 34 35 38 41 44 44 45 46 40 23 12 9 7 15 14 9 6 6 3 5 2 1 7 8 6 9 11 12 12 13 15 20 22 22 22 22 20 17 18 12 16 15 16
28 29 30 32 33 35 37 40 44 45 46 47 42 17 6 8 10 13 11 7 8 10 1 6 2 7 11 12 10 13 8 14 14 18 15 14 16 13 7 15 13 20 14 5 9 16 16
27 29 30 30 32 34 37 40 43 46 46 46 41 14 10 6 9 11 7 7 10 9 6 6 9 12 15 15 8 12 13 12 14 11 4 9 16 11 8 9 11 10 13 14 6 19 16
26 28 29 30 31 33 35 38 41 45 46 40 29 11 2 3 10 10 6 12 20 2 5 8 10 10 13 14 10 11 11 9 9 6 3 8 17 11 5 7 11 10 8 8 3 3 6
26 27 28 29 30 32 34 37 39 42 45 37 9 6 6 10 11 7 9 15 6 9 4 6 10 14 15 13 13 16 14 14 2 2 5 6 9 18 17 14 15 10 6 3 3 5 4
25 25 25 26 28 30 33 35 36 38 44 29 11 6 16 12 7 7 11 3 4 8 9 7 8 12 14 16 17 16 14 14 7 2 6 2 4 11 14 15 16 2 4 1 4 2 3
24 23 23 24 26 28 31 33 33 32 35 18 8 8 5 7 5 9 14 9 11 11 12 9 11 10 11 15 15 13 12 3 3 2 4 7 5 9 14 17 7 6 6 10 3 3 8
22 22 22 22 24 27 29 30 31 29 28 20 5 5 6 7 4 7 12 13 14 14 15 9 15 17 16 16 14 12 15 5 5 2 9 5 9 12 12 17 6 7 13 9 13 8 9
20 20 20 21 23 25 27 28 29 28 26 10 4 5 6 6 10 16 14 14 19 19 19 13 12 13 16 17 16 17 18 17 9 11 5 5 11 13 15 17 16 15 12 13 17 17 15
17 17 18 20 22 23 24 25 26 27 25 5 6 5 9 13 16 16 12 14 18 17 17 15 15 14 17 18 16 18 18 16 15 16 13 11 10 12 16 17 15 16 18 19 19 19 22
16 17 18 19 18 20 23 22 22 23 20 8 15 15 7 8 14 14 13 15 13 16 13 12 14 16 17 12 13 16 14 12 10 9 13 11 11 11 14 17 17 13 17 14 17 19 14
17 16 16 16 15 18 21 20 19 17 15 12 16 14 8 12 13 14 20 20 17 16 19 18 17 18 13 13 13 16 16 13 13 12 10 10 12 9 11 13 16 15 17 8 11 13 12
17 17 15 14 12 15 17 17 17 17 16 14 15 14 7 11 14 18 18 16 17 16 16 19 18 18 17 16 11 11 14 17 20 21 18 14 12 9 9 10 15 17 8 5 5 4 5
16 15 14 13 12 14 15 14 15 16 16 13 14 12 13 9 12 15 17 17 15 14 16 19 18 17 11 9 10 18 15 17 16 23 22 19 15 11 9 3 7 7 5 1 3 6 4
16 16 14 12 11 13 13 13 13 14 14 11 15 9 14 10 14 15 13 12 15 12 11 16 8 10 9 9 12 15 17 20 20 17 8 15 13 15 13 11 8 14 10 5 9 2 7
16 15 15 14 14 14 14 13 13 13 13 11 15 12 13 7 14 26 19 17 15 13 14 13 12 7 8 12 10 14 15 16 17 20 15 14 11 13 14 16 16 4 8 8 7 6 4
16 15 16 17 16 16 16 15 13 13 13 12 17 11 12 10 13 31 32 29 28 22 12 8 12 15 2 4 5 6 10 8 14 13 10 10 7 5 5 3 7 8 11 4 5 1 5
Wind_Direction
32 30 27 25 22 21 18 18 17 13 9 6 359 353 345 337 331 320 314 298 274 253 244 238 220 219 248 230 254 143 157 171 178 195 229 230 228 231 236 245 238 244 252 265 270 267 280
31 28 25 23 21 19 18 18 17 13 9 3 358 352 344 335 329 322 318 308 283 241 222 209 199 205 245 257 109 155 162 171 189 201 227 227 230 227 271 289 270 254 246 255 269 259 263
29 27 23 22 20 19 18 18 17 15 11 6 0 354 346 338 331 325 317 322 300 219 207 194 191 197 262 253 193 164 186 185 203 210 230 229 265 303 265 267 263 272 270 271 265 262 257
26 25 21 20 19 16 17 18 16 15 14 10 5 359 351 343 336 329 325 353 118 173 184 181 188 219 260 163 221 189 189 200 215 223 247 257 266 277 280 282 286 266 266 264 259 242 233
24 21 19 18 17 15 16 17 16 16 15 13 8 2 354 346 342 355 45 86 115 149 169 178 192 219 257 159 220 211 200 211 214 230 240 270 292 260 262 253 261 255 255 256 257 247 230
23 20 18 17 15 13 14 16 16 15 14 13 9 4 357 357 19 50 113 39 146 141 170 219 266 243 247 242 179 211 210 222 215 226 234 229 251 245 245 251 249 258 246 246 245 274 188
20 19 16 15 13 12 13 13 13 13 12 11 7 4 1 18 18 40 332 250 206 205 219 246 279 239 139 172 137 219 202 212 224 219 231 229 243 244 251 245 249 263 276 292 293 299 258
19 16 15 13 12 11 11 11 11 10 10 9 6 1 3 357 333 318 285 274 25 329 289 255 247 252 272 234 223 218 194 210 224 227 220 241 238 249 266 272 278 275 284 283 276 282 285
17 14 13 11 10 9 9 8 7 7 6 5 3 358 353 334 308 294 271 7 326 324 268 245 220 229 212 223 238 244 181 215 226 228 246 245 251 248 238 251 268 277 265 274 278 287 274
13 12 10 10 9 7 7 5 4 3 2 0 360 353 344 337 302 322 335 341 327 341 273 180 192 180 187 226 222 230 190 220 230 250 240 251 257 252 268 242 246 272 283 250 264 267 270
10 9 8 8 7 5 4 3 2 0 359 355 355 350 336 329 303 347 335 330 333 272 271 163 134 108 234 231 78 189 237 204 242 247 246 262 270 258 252 256 281 275 269 284 280 279 249
8 6 6 6 5 3 2 1 359 358 356 351 349 347 329 338 279 305 325 321 281 237 238 141 139 204 195 208 243 161 214 238 260 249 259 273 280 278 283 288 263 263 260 262 278 265 263
5 5 4 3 3 2 1 359 357 356 354 349 344 343 306 287 308 328 323 282 245 243 121 164 169 224 292 284 218 240 255 211 235 247 248 255 255 254 259 260 270 264 276 257 251 243 247
3 2 2 2 0 360 359 358 356 354 352 348 341 341 293 248 304 327 310 264 254 299 21 100 317 269 262 273 262 269 249 270 244 231 251 280 288 319 308 281 271 289 298 332 296 288 277
0 359 359 360 359 359 358 358 356 352 352 349 340 333 257 203 326 328 291 247 245 344 20 358 319 279 264 251 208 290 263 263 286 18 252 287 277 9 12 351 343 309 269 308 325 283 296
358 357 356 357 357 358 358 358 356 351 350 351 333 304 358 343 326 307 271 259 291 61 358 307 281 303 290 297 224 205 263 288 263 160 254 288 295 284 283 241 263 254 352 318 286 0 247
355 355 355 354 355 356 356 357 358 354 347 352 302 298 72 335 306 265 252 269 331 72 31 310 288 285 290 283 288 292 296 286 167 256 194 280 287 284 292 274 303 301 278 340 287 286 303
351 352 352 352 353 354 355 356 358 358 350 359 317 304 356 346 292 238 251 15 352 312 302 247 283 281 282 292 293 286 276 278 66 11 278 45 316 291 283 307 308 287 293 81 268 233 163
347 349 350 350 351 352 354 355 356 357 359 338 309 292 179 324 317 337 346 327 319 293 286 277 272 266 281 283 286 276 279 257 106 267 24 352 244 276 273 258 36 353 291 224 195 64 255
344 346 347 349 350 351 352 352 353 352 351 347 289 314 358 329 189 338 339 313 298 301 289 269 291 287 283 277 264 269 272 242 176 96 69 30 278 264 268 285 163 221 221 240 193 209 254
340 341 343 345 347 347 348 350 351 349 345 338 271 337 357 300 318 331 304 292 289 288 285 266 258 275 269 270 263 265 264 247 182 143 181 191 250 262 267 271 270 278 281 261 227 231 242
335 336 338 341 343 345 346 348 351 351 344 247 331 344 338 300 286 286 282 279 281 286 294 288 291 285 279 277 269 266 276 275 258 180 199 205 244 270 274 272 278 271 267 261 257 272 276
330 332 333 336 341 347 348 346 349 354 5 327 352 332 304 288 293 285 279 279 302 308 306 296 293 277 277 299 343 324 315 312 313 288 191 221 240 229 258 280 287 271 271 268 278 256 263
322 325 328 330 338 338 340 343 343 350 357 327 310 317 299 289 297 294 305 308 302 289 291 294 294 291 283 297 326 301 277 266 269 255 263 253 251 254 263 271 268 272 284 254 294 299 309
317 320 322 323 323 322 328 336 339 335 336 325 308 298 297 291 298 295 293 305 314 305 282 272 262 267 287 295 291 280 260 258 253 254 249 227 239 260 263 252 273 273 281 182 294 278 48
317 316 316 316 317 320 319 318 328 333 331 323 307 323 296 288 270 315 321 303 290 285 284 278 279 299 242 265 258 257 250 252 246 237 225 228 211 232 234 225 243 246 95 136 172 237 46
316 316 309 305 304 316 319 313 312 321 329 317 297 322 297 291 282 295 313 324 311 302 303 305 7 317 313 243 248 253 258 253 254 249 252 222 218 217 234 238 253 254 152 187 228 130 84
315 314 312 300 288 302 315 315 309 307 317 324 294 297 289 284 285 277 291 298 290 278 275 286 319 268 278 253 258 269 257 256 260 258 204 226 210 223 228 237 234 160 138 265 92 135 131
314 312 310 308 289 285 296 307 302 298 300 309 293 302 304 269 284 298 287 276 268 263 272 287 288 299 286 302 358 310 264 262 260 251 242 201 199 233 162 174 127 134 135 152 84 359 43